Temperature
18 17 17 17 17 16 16 16 16 15 15 15 15 15 15 15 14 14 14 14 14 14 14 14 14 14 14 14 14 14 13 13 13 13 13 13 13 13 13 13 13 13 13
18 17 17 17 17 17 16 16 16 16 15 15 15 15 15 15 14 14 14 14 14 14 14 14 14 14 14 14 13 13 13 13 13 13 13 12 12 13 13 13 13 13 13
18 17 17 17 17 17 17 16 16 16 15 15 15 15 15 15 14 14 14 14 14 14 14 14 14 14 14 13 13 13 13 13 13 13 12 12 12 12 12 12 12 12 12
18 18 17 17 17 17 17 16 16 16 15 15 15 15 15 15 14 14 14 14 14 14 14 13 13 13 13 13 13 13 13 13 12 12 12 12 12 12 12 12 12 12 12
18 18 18 17 17 17 17 16 16 16 16 15 15 15 15 15 14 14 14 14 14 14 14 13 13 13 13 13 13 13 13 13 12 12 12 12 12 12 12 12 12 12 12
18 18 18 17 17 17 17 17 16 16 16 15 15 15 15 15 15 14 14 14 14 14 14 13 13 13 13 13 13 13 12 12 12 12 12 12 11 11 11 11 11 11 11
18 18 18 17 17 17 17 17 16 16 16 16 15 15 15 15 14 14 14 14 14 14 14 13 13 13 13 13 13 13 12 12 12 12 12 12 11 11 11 11 11 11 11
18 18 18 18 17 17 17 17 16 16 16 16 15 15 15 15 14 14 14 14 14 14 14 13 13 13 13 13 13 12 12 12 12 12 12 11 11 11 11 10 10 10 10
19 18 18 18 17 17 17 17 16 16 16 16 15 15 15 15 14 14 14 14 14 13 13 13 13 13 13 13 12 12 12 12 12 11 11 11 11 11 10 10 10 10 10
19 19 18 18 18 17 17 17 16 16 16 15 15 15 15 15 14 14 14 14 13 13 13 13 13 13 12 12 12 12 12 12 11 11 11 11 10 10 10 10 10 10 9
19 18 18 18 18 17 17 16 16 16 15 15 15 15 15 14 14 14 14 14 13 13 13 13 13 12 12 12 12 12 12 11 11 11 11 10 10 10 10 10 9 9 9
19 18 18 18 17 17 17 16 16 16 15 15 15 15 15 14 14 14 14 13 13 13 13 13 12 12 12 12 12 11 11 11 11 11 11 10 10 10 10 9 9 9 9
19 18 18 18 17 17 17 16 16 16 15 15 15 15 15 14 14 14 14 13 13 13 13 12 12 12 12 11 11 11 11 11 11 10 10 10 10 9 9 9 9 8 8
19 18 18 18 17 17 17 16 16 16 16 16 15 15 15 14 14 14 14 13 13 13 12 12 12 12 11 11 11 11 11 10 10 10 10 10 9 9 9 8 8 8 8
18 18 18 18 17 17 17 17 16 16 16 16 15 15 15 15 15 14 14 13 13 13 12 12 12 12 11 11 11 11 10 10 10 10 9 9 9 9 8 8 8 8 7
18 18 18 17 17 17 17 16 16 16 15 15 15 15 14 14 14 14 13 13 13 12 12 12 12 11 11 11 11 10 10 10 10 9 9 9 9 8 8 8 7 7 7
18 17 17 17 17 17 16 16 16 16 15 15 15 14 14 14 14 13 13 13 12 12 12 12 11 11 11 11 10 10 10 10 9 9 9 8 8 8 8 7 7 7 7
17 17 17 17 17 17 16 16 16 16 15 15 15 14 14 14 13 13 13 12 12 12 12 12 11 11 11 11 10 10 10 9 9 9 9 8 8 7 7 7 7 6 6
17 17 16 16 16 16 16 16 15 15 15 15 14 14 14 13 13 12 12 12 12 12 12 11 11 11 11 10 10 10 9 9 9 8 8 8 8 7 7 7 6 6 5
16 16 16 16 16 15 15 15 15 14 14 14 14 14 13 13 13 12 12 12 12 11 11 11 11 10 10 10 10 9 9 9 8 8 8 8 7 7 6 6 6 5 5
15 15 15 15 15 15 15 14 14 14 13 13 13 13 13 12 12 12 12 11 11 11 11 11 10 10 10 9 9 9 9 8 8 8 7 7 7 6 6 6 5 5 4
15 14 14 14 14 14 14 14 13 13 13 13 13 12 12 12 11 11 11 11 11 10 10 10 10 10 9 9 9 8 8 8 8 7 7 7 6 6 5 5 5 4 4
14 14 14 14 13 13 13 13 13 12 12 12 12 11 11 11 11 10 10 10 10 10 10 9 9 9 9 8 8 8 8 7 7 7 6 6 6 5 5 4 4 4 3
13 13 13 13 13 12 12 12 12 11 11 11 11 11 10 10 10 10 9 9 9 9 9 9 8 8 8 8 8 7 7 7 7 6 6 5 5 5 4 4 3 3 3
13 12 12 12 12 12 11 11 11 11 10 10 10 10 9 9 9 9 8 8 8 8 8 8 8 8 7 7 7 7 6 6 6 5 5 5 4 4 4 3 3 3 2
12 11 11 11 11 11 10 10 10 10 9 9 9 9 8 8 8 8 8 7 7 7 7 7 7 7 6 6 6 6 5 5 5 5 4 4 4 3 3 3 2 2 2
Wind_Speed
7 6 6 5 5 5 5 4 4 3 3 4 4 4 4 4 4 5 5 5 6 5 5 6 5 4 4 4 4 4 3 3 3 1 2 3 4 5 8 10 11 11 12
7 7 6 6 6 5 5 4 4 4 4 4 4 5 4 4 4 5 5 5 5 5 4 5 5 4 5 4 4 4 3 3 3 2 2 3 4 4 5 6 8 9 10
8 8 7 6 6 6 5 5 5 5 4 4 4 4 4 4 4 4 5 5 4 4 4 4 3 4 4 3 4 4 3 3 3 3 1 2 2 3 4 4 6 7 9
8 8 8 8 7 6 6 6 6 5 5 5 4 4 4 4 4 4 5 5 5 4 3 3 3 3 3 3 3 3 3 4 4 3 2 2 2 3 3 3 4 4 5
9 9 8 7 6 6 6 6 5 5 5 5 5 4 4 4 4 5 5 5 4 4 4 3 2 3 3 3 3 3 4 3 3 3 2 2 2 3 3 2 2 3 3
10 10 8 8 7 7 7 6 6 5 5 5 5 5 4 3 6 8 6 5 4 4 3 2 2 4 5 5 5 5 5 4 3 2 1 1 1 1 1 1 1 2 3
10 9 9 9 8 7 7 7 7 6 5 5 4 4 4 4 6 8 8 6 5 4 3 2 2 2 4 4 5 6 5 4 3 4 3 2 2 2 0 1 1 1 1
10 9 9 9 8 8 7 7 6 5 5 5 5 5 4 3 6 7 9 6 4 3 2 3 3 1 2 4 4 4 3 3 2 2 3 3 3 3 3 2 1 1 2
10 10 10 10 10 9 9 8 6 5 5 4 4 5 5 4 6 8 9 5 4 2 1 2 2 2 2 4 4 3 2 2 3 3 2 1 2 1 2 2 1 2 2
12 11 10 10 11 11 10 7 5 5 5 5 4 4 5 4 6 8 9 5 4 2 1 1 2 3 3 4 4 3 1 1 1 2 3 4 4 4 2 1 2 1 0
9 9 9 10 10 10 8 6 6 6 6 5 4 3 3 4 5 7 9 5 5 4 3 2 2 3 3 3 4 3 4 2 1 1 1 2 3 3 3 2 1 2 2
9 9 9 9 8 8 8 7 7 7 7 5 4 3 2 2 3 5 8 7 7 5 4 3 3 4 3 3 2 3 3 3 2 1 1 2 2 2 3 3 2 2 3
9 9 8 8 7 8 9 9 7 7 6 5 5 4 3 3 3 6 7 8 8 5 4 6 5 5 3 1 1 2 2 2 2 1 1 2 2 2 3 3 3 3 3
9 8 8 8 7 7 7 8 8 8 7 6 6 6 4 3 4 4 3 4 6 5 3 3 4 4 2 1 0 1 1 2 2 2 2 2 2 1 1 1 1 2 2
8 7 7 7 8 7 7 6 8 8 9 9 8 7 7 6 8 10 7 6 5 5 4 2 2 1 1 1 1 1 1 1 2 2 2 2 2 2 2 1 1 1 1
7 6 6 6 6 6 6 3 3 5 8 10 9 8 7 8 7 11 12 11 10 10 6 3 3 4 4 4 3 3 3 3 4 3 3 3 3 3 3 2 2 2 3
7 7 6 6 7 6 6 7 4 2 3 7 8 10 9 9 9 10 10 10 9 11 5 4 5 5 5 5 5 4 4 4 4 4 4 4 4 4 4 4 3 3 4
6 7 6 6 6 7 7 6 6 5 4 3 4 8 9 9 9 9 9 7 4 5 5 6 6 6 6 6 6 5 5 5 4 5 5 5 5 5 5 5 5 5 5
5 5 5 5 5 5 5 5 5 5 4 3 2 2 6 7 7 8 9 5 6 6 6 6 6 6 6 6 6 6 6 6 6 5 6 6 6 5 6 6 6 7 6
4 5 5 5 4 4 4 5 5 5 4 4 4 4 3 3 3 4 5 5 6 6 7 7 7 7 6 6 6 6 5 6 6 6 6 6 6 6 7 7 6 6 6
3 4 6 4 4 5 5 5 5 5 5 5 5 5 8 6 6 6 6 6 7 7 7 7 6 6 6 6 6 6 7 6 6 6 6 6 6 6 6 6 6 6 6
3 3 3 4 4 4 4 4 4 5 5 5 4 4 8 5 5 5 6 6 7 6 6 6 6 6 6 6 6 6 7 7 6 6 6 6 6 6 6 6 6 6 6
4 4 3 2 3 4 4 3 3 4 4 4 3 3 4 5 5 5 6 6 5 5 6 6 6 6 7 8 8 8 7 8 7 7 6 6 6 6 6 6 7 7 7
3 4 4 3 3 3 3 3 3 3 3 3 3 3 4 4 5 5 5 4 5 5 6 6 7 8 8 8 8 9 10 10 9 8 8 7 6 6 6 6 7 8 8
3 3 3 3 3 3 3 3 3 3 3 3 3 3 3 3 3 4 4 3 4 4 5 6 6 7 8 9 8 9 10 11 10 9 7 6 7 7 7 7 7 8 8
2 2 2 2 2 2 2 2 2 3 3 3 3 3 3 3 3 3 3 3 3 3 4 4 6 7 8 8 9 10 11 11 11 11 9 6 7 7 7 7 9 9 9
Wind_Direction
165 161 153 157 156 148 147 154 152 139 128 117 109 99 89 79 79 84 78 77 78 66 62 72 64 59 65 57 64 71 70 92 111 360 345 349 10 16 17 30 39 39 36
165 158 156 154 152 153 157 157 151 146 139 130 117 107 100 93 92 97 93 85 86 78 68 74 68 74 68 60 69 71 70 75 112 93 6 2 6 358 5 20 30 33 33
158 155 155 158 161 165 163 155 148 143 140 130 125 121 117 112 106 104 106 99 89 83 79 83 80 86 76 69 74 74 69 68 77 100 36 2 359 358 7 13 21 20 25
160 161 167 174 173 169 159 153 150 147 145 144 139 134 130 123 120 116 110 105 96 84 78 83 88 101 111 103 92 89 90 78 71 75 51 10 357 344 17 15 8 8 11
164 171 180 175 163 156 153 153 147 146 150 145 136 129 129 135 144 138 128 121 113 97 77 72 84 104 115 120 118 122 110 94 79 71 47 22 1 4 2 346 3 349 2
172 179 173 162 161 163 161 154 149 147 144 142 147 148 152 163 161 155 143 130 126 119 105 76 64 70 83 88 94 113 127 125 128 114 94 69 308 301 321 346 360 11 348
176 174 169 167 167 169 164 156 160 161 154 153 157 157 165 180 168 160 153 139 133 132 130 115 94 81 86 86 76 76 73 82 128 148 152 202 229 246 260 0 7 10 282
175 174 172 170 169 163 161 167 168 160 162 165 167 169 169 190 176 161 151 132 129 132 139 141 132 112 114 119 101 78 58 39 61 120 172 213 227 228 202 200 208 290 307
181 181 179 174 170 167 173 176 170 163 168 170 167 169 174 192 179 162 148 134 134 140 145 145 158 163 163 132 116 104 61 6 39 69 82 55 22 29 132 109 70 54 348
191 186 179 175 174 178 181 174 165 166 172 163 163 174 179 187 185 173 160 145 149 159 154 182 196 186 176 148 141 143 150 277 352 20 23 21 23 25 38 103 165 151 228
181 170 171 177 180 177 171 166 158 157 154 159 165 172 182 193 195 186 174 163 171 172 184 211 232 207 183 166 158 174 204 193 155 80 13 1 8 13 11 7 188 175 187
162 167 173 176 177 172 163 161 156 154 156 166 168 180 204 211 201 200 191 185 176 171 193 205 211 200 184 173 171 194 186 137 109 81 29 343 336 329 327 332 321 256 234
161 171 172 169 169 162 165 164 159 161 166 177 179 195 212 210 216 209 202 195 185 179 195 190 187 182 167 168 190 175 144 130 129 146 259 270 269 282 310 326 336 329 306
167 171 168 167 166 165 167 169 171 177 179 184 191 201 207 203 209 207 201 197 191 189 185 177 169 158 150 172 158 122 151 181 183 208 238 260 281 294 299 295 301 327 327
165 167 169 170 170 172 177 184 186 193 189 188 198 195 192 211 220 200 186 192 190 185 154 129 133 157 197 229 240 240 224 204 212 218 222 244 264 271 273 259 241 252 271
161 167 171 171 171 172 172 174 206 198 201 202 197 190 206 211 199 192 196 196 188 170 151 168 194 203 212 219 224 235 230 225 223 217 221 229 240 250 262 255 228 233 258
170 174 171 171 172 174 176 181 191 215 208 210 209 205 207 203 198 193 193 191 185 170 172 194 206 213 219 218 218 220 227 226 216 217 226 231 235 240 243 251 249 250 260
166 170 171 177 177 178 183 186 185 184 196 229 230 218 212 209 205 200 187 164 177 185 200 208 215 217 217 219 219 221 228 228 221 225 229 232 230 232 239 247 248 248 260
163 170 172 172 173 175 175 175 179 184 191 200 200 223 212 205 205 201 177 181 197 207 213 219 220 219 220 220 222 222 224 228 228 225 230 231 229 227 239 245 249 253 255
166 166 163 164 163 163 165 172 179 185 191 196 206 209 179 164 191 202 199 204 210 216 216 220 223 222 222 223 223 223 227 232 233 232 234 234 230 228 238 245 246 250 252
155 160 155 154 170 175 177 185 188 190 199 208 218 207 185 190 204 208 209 213 217 221 222 222 223 223 224 222 221 223 226 234 233 232 234 234 231 232 236 238 243 246 253
147 151 158 169 175 177 181 184 185 192 202 210 223 214 202 201 209 214 217 221 222 222 218 214 221 223 219 216 217 220 226 232 232 229 231 232 232 235 236 237 242 248 254
141 145 146 152 161 166 167 173 182 191 202 209 208 203 202 212 218 222 227 230 226 223 217 211 219 229 229 229 225 219 224 230 229 222 222 229 233 235 236 241 245 251 255
143 151 155 155 153 163 174 181 186 193 199 206 209 212 216 221 227 231 234 234 228 226 221 219 225 232 233 234 234 232 234 239 239 234 224 226 233 238 239 244 249 254 258
135 145 153 161 167 177 184 188 194 199 203 209 213 218 226 230 236 240 241 236 234 235 233 232 234 236 237 237 239 241 243 243 243 243 236 230 234 239 244 249 254 259 259
121 131 141 150 164 176 185 195 203 205 211 216 215 215 218 226 237 243 242 236 237 242 242 238 237 239 242 246 249 251 253 254 254 251 244 237 235 243 246 253 257 258 261
Height
1562 1564 1566 1567 1569 1570 1571 1572 1572 1573 1573 1573 1573 1573 1573 1573 1573 1573 1573 1572 1572 1572 1572 1572 1572 1572 1572 1572 1572 1572 1572 1572 1572 1572 1572 1571 1571 1570 1569 1569 1568 1567 1566
1561 1563 1565 1567 1569 1570 1571 1572 1572 1573 1574 1574 1574 1574 1574 1574 1574 1574 1574 1574 1574 1573 1573 1573 1573 1573 1573 1573 1573 1573 1573 1573 1573 1572 1572 1572 1571 1570 1570 1569 1568 1567 1566
1559 1562 1564 1566 1568 1569 1570 1571 1572 1573 1574 1574 1575 1575 1575 1575 1575 1575 1575 1575 1575 1574 1574 1574 1574 1574 1574 1574 1574 1574 1573 1573 1573 1573 1573 1572 1572 1571 1570 1569 1568 1567 1566
1557 1560 1562 1565 1567 1568 1570 1571 1572 1573 1574 1575 1575 1575 1576 1576 1576 1576 1576 1576 1575 1575 1575 1574 1574 1574 1574 1574 1574 1574 1574 1574 1574 1573 1573 1572 1571 1570 1570 1568 1567 1567 1566
1555 1558 1561 1563 1565 1567 1569 1570 1571 1572 1573 1574 1575 1575 1576 1576 1576 1576 1576 1576 1576 1576 1575 1575 1575 1575 1575 1575 1575 1575 1575 1574 1574 1573 1573 1572 1571 1570 1569 1568 1567 1566 1565
1552 1555 1559 1561 1563 1565 1567 1569 1570 1571 1572 1573 1574 1575 1575 1576 1576 1576 1576 1576 1576 1576 1576 1575 1575 1575 1575 1575 1575 1575 1575 1574 1573 1573 1572 1571 1570 1570 1569 1567 1566 1565 1564
1549 1553 1556 1559 1561 1563 1565 1567 1569 1570 1571 1572 1573 1574 1574 1575 1575 1576 1576 1576 1576 1576 1576 1575 1575 1575 1575 1575 1575 1574 1574 1574 1573 1573 1572 1571 1570 1569 1568 1567 1566 1564 1563
1546 1549 1553 1556 1559 1561 1563 1565 1567 1568 1569 1570 1571 1572 1573 1574 1574 1574 1575 1575 1575 1575 1575 1575 1575 1575 1575 1574 1574 1574 1573 1573 1572 1571 1571 1570 1569 1568 1567 1566 1565 1563 1562
1542 1546 1549 1553 1555 1558 1560 1562 1564 1566 1567 1568 1570 1570 1571 1572 1572 1573 1573 1573 1574 1574 1574 1574 1574 1574 1574 1573 1573 1573 1572 1572 1571 1570 1570 1569 1568 1567 1566 1565 1563 1562 1560
1538 1542 1546 1549 1552 1555 1557 1559 1561 1563 1564 1566 1567 1568 1569 1570 1570 1571 1571 1572 1572 1572 1572 1572 1572 1572 1572 1572 1572 1571 1571 1570 1570 1569 1568 1568 1566 1565 1564 1563 1562 1560 1558
1535 1539 1543 1546 1549 1552 1554 1556 1558 1560 1561 1563 1564 1565 1566 1567 1568 1568 1569 1569 1570 1570 1570 1570 1570 1570 1570 1570 1570 1569 1569 1568 1568 1567 1566 1565 1564 1563 1562 1561 1560 1558 1557
1532 1536 1539 1542 1545 1548 1550 1553 1555 1556 1558 1560 1561 1562 1563 1564 1565 1565 1566 1567 1567 1567 1567 1568 1568 1568 1568 1568 1567 1567 1567 1566 1565 1564 1564 1563 1562 1561 1560 1559 1558 1556 1555
1529 1532 1536 1539 1542 1544 1547 1549 1551 1552 1554 1556 1557 1558 1560 1561 1562 1562 1563 1564 1564 1564 1564 1565 1565 1565 1565 1565 1564 1564 1564 1563 1562 1562 1561 1560 1559 1558 1557 1556 1555 1554 1552
1525 1529 1532 1535 1538 1540 1543 1545 1547 1548 1550 1552 1553 1555 1556 1557 1558 1559 1559 1560 1561 1561 1561 1561 1562 1562 1562 1561 1561 1561 1561 1560 1559 1559 1558 1557 1556 1555 1554 1553 1551 1550 1549
1522 1525 1528 1531 1534 1536 1539 1541 1543 1545 1547 1549 1550 1551 1552 1553 1554 1555 1556 1556 1557 1557 1558 1558 1558 1558 1558 1558 1558 1557 1557 1556 1556 1555 1554 1553 1553 1552 1550 1549 1548 1546 1544
1519 1522 1525 1527 1530 1532 1535 1537 1539 1541 1543 1544 1546 1548 1548 1550 1550 1551 1552 1552 1553 1553 1553 1553 1553 1554 1554 1554 1553 1553 1553 1552 1552 1551 1550 1549 1548 1547 1546 1545 1544 1542 1540
1516 1518 1521 1524 1526 1528 1530 1532 1534 1537 1538 1540 1541 1542 1544 1545 1546 1546 1547 1548 1548 1548 1548 1548 1549 1549 1549 1549 1549 1549 1548 1548 1547 1547 1546 1545 1544 1543 1541 1540 1538 1536 1534
1513 1515 1518 1520 1522 1524 1526 1528 1530 1532 1533 1535 1537 1538 1539 1540 1541 1542 1542 1543 1543 1543 1543 1543 1544 1544 1544 1544 1544 1544 1543 1543 1542 1541 1540 1539 1538 1537 1536 1534 1533 1531 1529
1510 1512 1515 1517 1519 1521 1523 1524 1526 1527 1529 1530 1531 1533 1534 1535 1536 1536 1537 1537 1537 1537 1538 1538 1539 1539 1539 1539 1538 1538 1538 1537 1536 1535 1534 1533 1532 1531 1529 1528 1526 1524 1522
1507 1509 1511 1513 1515 1517 1518 1520 1521 1522 1524 1525 1526 1527 1528 1529 1529 1530 1531 1531 1531 1532 1532 1532 1533 1533 1533 1533 1533 1532 1531 1531 1530 1529 1528 1527 1526 1524 1523 1521 1519 1518 1516
1504 1505 1507 1509 1511 1512 1514 1515 1516 1518 1519 1520 1521 1522 1522 1523 1523 1524 1524 1525 1525 1526 1526 1526 1526 1527 1527 1527 1526 1526 1525 1524 1523 1522 1521 1520 1519 1517 1516 1514 1512 1511 1508
1501 1502 1504 1505 1507 1508 1510 1511 1512 1513 1514 1515 1515 1516 1517 1517 1518 1518 1518 1519 1519 1519 1520 1520 1519 1520 1520 1520 1519 1519 1518 1517 1516 1515 1514 1513 1511 1510 1508 1506 1505 1503 1501
1498 1499 1500 1501 1503 1504 1505 1506 1507 1508 1509 1509 1510 1510 1511 1511 1511 1512 1512 1513 1513 1513 1513 1513 1513 1513 1513 1513 1512 1512 1511 1510 1509 1508 1507 1505 1504 1502 1501 1499 1497 1495 1493
1495 1496 1497 1498 1499 1499 1500 1501 1502 1503 1504 1504 1505 1505 1505 1505 1506 1506 1506 1506 1506 1506 1506 1506 1506 1506 1506 1506 1505 1504 1504 1503 1502 1501 1499 1498 1496 1494 1493 1491 1489 1487 1485
1492 1492 1493 1494 1495 1495 1496 1497 1498 1498 1499 1499 1500 1500 1500 1500 1500 1500 1500 1500 1500 1500 1500 1500 1500 1499 1499 1498 1498 1497 1496 1495 1494 1493 1491 1490 1488 1486 1484 1482 1480 1478 1476
1489 1489 1490 1490 1491 1492 1492 1493 1493 1494 1494 1494 1495 1495 1495 1495 1495 1495 1494 1494 1494 1494 1493 1493 1493 1492 1492 1491 1490 1490 1489 1487 1486 1485 1483 1481 1479 1478 1476 1474 1472 1470 1468